[[{"header":{"parameterUnit":"m.s-1","parameterCategory":1,"la1":30.2991,"la2":30.254,"lo1":-89.0895,"lo2":-89.0444,"dy":0.0017,"dx":0.0017,"nx":28,"ny":28,"refTime":"2025-12-15T03:00:00:Z","depth":0,"parameterNumber":2,"parameterNumberName":"U-component_of_WINDS"},"data":[0,0,0,0,0,0,0,0,0,0,0,0,0,0,0,0,0,0,0,0,0,0,0,0,0,0,0,0,0,0,0,0,0,0,0,0,0,0,0,0,0,0,0,0,0,0,0,0,0,0,0,0,0,0,0,0,0,0,-1.4204,-1.4204,0,-1.4263,-1.4264,-1.4264,-1.4221,-1.4219,-1.4217,-1.4215,-1.4276,-1.4279,-1.4283,0,0,0,0,0,0,0,0,0,0,0,0,0,-1.4052,-1.4055,-1.4204,-1.4204,-1.4205,-1.4263,-1.4264,-1.4265,-1.4221,-1.4219,-1.4217,-1.4214,-1.4275,-1.4279,-1.4283,0,0,0,0,0,0,0,0,0,0,0,0,0,-1.4116,-1.4056,-1.4203,-1.419,-1.419,-1.4263,-1.4264,-1.4265,-1.4222,-1.4219,-1.4216,-1.4213,-1.4274,-1.4278,-1.4284,-1.4372,0,0,-1.4299,-1.4301,0,0,0,0,0,0,0,0,-1.4112,-1.4121,-1.4192,-1.4191,-1.4191,-1.4232,-1.4233,-1.4301,-1.4222,-1.421,-1.4215,-1.4212,-1.4264,-1.4269,-1.4287,-1.4375,-1.4378,-1.43,-1.4303,-1.4305,-1.4306,0,0,0,0,0,0,0,-1.4108,-1.4118,-1.4227,-1.4193,-1.4192,-1.4182,-1.4187,-1.4245,-1.4252,-1.4211,-1.4208,-1.4215,-1.4263,-1.4282,-1.4288,-1.4379,-1.4299,-1.4304,-1.4307,-1.4309,-1.4543,-1.4546,0,0,0,0,0,0,-1.4105,-1.4115,-1.4225,-1.4229,-1.4144,-1.4187,-1.4193,-1.4221,-1.4251,-1.4253,-1.4218,-1.4213,-1.4275,-1.4282,-1.429,-1.4395,-1.4305,-1.431,-1.4312,-1.454,-1.4544,-1.4547,0,0,0,0,0,0,-1.4102,-1.4115,-1.4223,-1.4171,-1.4184,-1.4192,-1.4224,-1.4224,-1.4243,-1.4256,-1.4257,-1.4236,-1.4273,-1.4283,-1.4352,-1.4397,-1.4312,-1.4316,-1.4536,-1.4541,-1.4545,-1.4608,0,0,0,0,0,0,-1.4097,-1.4114,-1.4148,-1.4172,-1.4187,-1.4284,-1.4227,-1.4227,-1.4252,-1.4247,-1.4274,-1.4276,-1.4271,-1.4345,-1.4357,-1.4402,-1.432,-1.4532,-1.4538,-1.4544,-1.4601,-1.4614,-1.4624,0,0,0,0,0,-1.4092,-1.4163,-1.415,-1.4163,-1.4229,-1.4287,-1.4295,-1.4289,-1.4256,-1.429,-1.4299,-1.4275,-1.439,-1.4352,-1.4366,-1.4413,-1.4529,-1.4537,-1.4543,-1.4596,-1.4611,-1.4624,0,0,0,0,0,0,-1.4143,-1.4166,-1.4151,-1.4232,-1.4258,-1.4279,-1.4322,-1.4305,-1.434,-1.4334,-1.4324,-1.4331,-1.4403,-1.4415,-1.4373,-1.4501,-1.4455,-1.4465,-1.449,-1.4504,-1.4516,-1.4511,-1.4325,0,0,0,0,0,-1.4164,-1.4209,-1.4226,-1.4296,-1.4309,-1.4314,-1.4338,-1.4331,-1.4358,-1.4368,-1.4382,-1.4408,-1.445,-1.4478,-1.4518,-1.4603,-1.4609,-1.4643,-1.4654,-1.4664,-1.4672,-1.4718,-1.4733,-1.457,-1.457,-1.457,0,0,-1.4207,-1.4225,-1.4254,-1.4306,-1.4325,-1.4372,-1.4323,-1.4374,-1.4409,-1.4376,-1.4442,-1.4453,-1.4482,-1.456,-1.4595,-1.4572,-1.4719,-1.4673,-1.468,-1.4683,-1.4727,-1.4742,-1.4756,-1.4575,-1.4574,-1.4574,0,0,-1.4309,-1.4327,-1.4387,-1.4407,-1.4437,-1.444,-1.4454,-1.4479,-1.4485,-1.4551,-1.4528,-1.4569,-1.4641,-1.4663,-1.4683,-1.4795,-1.4774,-1.4808,-1.4867,-1.4912,-1.4925,-1.4936,-1.4975,-1.4989,-1.4817,-1.4817,-1.4817,0,-1.4358,-1.4428,-1.442,-1.4473,-1.4497,-1.447,-1.453,-1.455,-1.4592,-1.4609,-1.4583,-1.4674,-1.4691,-1.4774,-1.4801,-1.4819,-1.4835,-1.4804,-1.4924,-1.4935,-1.4945,-1.4982,-1.4997,-1.4821,-1.482,-1.482,-1.4819,0,-1.4487,-1.4535,-1.458,-1.4621,-1.465,-1.4706,-1.4707,-1.4738,-1.4728,-1.4734,-1.4802,-1.4822,-1.4865,-1.4885,-1.4876,-1.4966,-1.4951,-1.4925,-1.4878,-1.4965,-1.4999,-1.5014,-1.4826,-1.4825,-1.4824,-1.4823,0,0,-1.4621,-1.4658,-1.4674,-1.4692,-1.4723,-1.4761,-1.4816,-1.4859,-1.4885,-1.4914,-1.496,-1.5023,-1.4999,-1.5022,-1.5016,-1.5056,-1.5142,-1.5025,-1.5025,-1.5045,-1.5242,-1.5261,-1.5278,-1.5129,-1.5132,-1.5134,-1.524,0,-1.4724,-1.4821,-1.4816,-1.4906,-1.4951,-1.4927,-1.4975,-1.4999,-1.5006,-1.5045,-1.5053,-1.5097,-1.5062,-1.5076,-1.5114,-1.5123,-1.5181,-1.5116,-1.5171,-1.5174,-1.5164,-1.5296,-1.5316,-1.5414,-1.5253,-1.5255,-1.5257,0,-1.4857,-1.4891,-1.4986,-1.5011,-1.5029,-1.5073,-1.5112,-1.5149,-1.5177,-1.5179,-1.5205,-1.5193,-1.5249,-1.5202,-1.5279,-1.5235,-1.5257,-1.5265,-1.5269,-1.5273,-1.522,-1.5303,-1.5446,-1.546,-1.5279,-1.5277,-1.5275,0,-1.4944,-1.5015,-1.508,-1.5097,-1.5128,-1.5159,-1.5173,-1.5198,-1.5224,-1.5257,-1.5274,-1.5314,-1.5336,-1.5368,-1.5366,-1.5332,-1.5444,-1.5397,-1.5447,-1.5448,-1.5471,-1.5469,-1.5619,-1.5488,-1.5487,-1.5487,-1.5487,0,-1.5059,-1.5118,-1.512,-1.5161,-1.5226,-1.522,-1.5285,-1.5296,-1.5318,-1.536,-1.5342,-1.5382,-1.5378,-1.5419,-1.5418,-1.5482,-1.5492,-1.5495,-1.5494,-1.5496,-1.5496,-1.551,-1.5503,-1.5491,-1.549,-1.5489,-1.5489,0,-1.5167,-1.5171,-1.5241,-1.5265,-1.5272,-1.532,-1.534,-1.5378,-1.5384,-1.5437,-1.545,-1.5458,-1.5505,-1.5507,-1.5561,-1.556,-1.5638,-1.563,-1.5629,-1.5627,-1.5677,-1.5672,-1.584,-1.5861,-1.5717,-1.5718,-1.572,0,-1.524,-1.5285,-1.5313,-1.534,-1.5356,-1.54,-1.5427,-1.5423,-1.5451,-1.5486,-1.5521,-1.5565,-1.5601,-1.5677,-1.5688,-1.5729,-1.5721,-1.5777,-1.5727,-1.5728,-1.5721,-1.5718,-1.5722,-1.5787,-1.5788,-1.579,-1.5791,0,-1.5368,-1.5368,-1.5406,-1.5446,-1.5478,-1.551,-1.5539,-1.5562,-1.5562,-1.5594,-1.5642,-1.567,-1.5725,-1.5769,-1.581,-1.5824,-1.5808,-1.5807,-1.582,-1.5822,-1.5819,-1.5821,-1.5654,-1.5802,-1.5801,-1.58,-1.58,-1.5799,-1.546,-1.5498,-1.5525,-1.5568,-1.559,-1.5618,-1.5655,-1.5665,-1.5705,-1.5749,-1.5745,-1.5798,-1.5825,-1.5877,-1.5895,-1.5936,-1.5917,-1.5937,-1.5942,-1.5946,-1.5951,-1.5814,-1.5944,-1.5943,-1.5943,-1.5943,-1.5942,0,-1.5586,-1.5602,-1.5642,-1.5683,-1.5718,-1.57,-1.5732,-1.5762,-1.5808,-1.5835,-1.587,-1.5925,-1.5969,-1.5984,-1.6026,-1.6056,-1.605,-1.6067,-1.6065,-1.6068,-1.5967,-1.595,-1.6072,-1.6072,-1.6072,-1.6072,-1.6072,-1.6072,-1.5655,-1.572,-1.5723,-1.5798,-1.5813,-1.5865,-1.5884,-1.591,-1.5931,-1.5993,-1.6029,-1.6038,-1.606,-1.6104,-1.6143,-1.6147,-1.6163,-1.6184,-1.6184,-1.6088,-1.6075,-1.6063,-1.6047,-1.6188,-1.6188,-1.6282,-1.6283,-1.6283]},{"header":{"parameterUnit":"m.s-1","parameterCategory":1,"la1":30.2991,"la2":30.254,"lo1":-89.0895,"lo2":-89.0444,"dy":0.0017,"dx":0.0017,"nx":28,"ny":28,"refTime":"2025-12-15T03:00:00:Z","depth":0,"parameterNumber":3,"parameterNumberName":"V-component_of_WINDS"},"data":[0,0,0,0,0,0,0,0,0,0,0,0,0,0,0,0,0,0,0,0,0,0,0,0,0,0,0,0,0,0,0,0,0,0,0,0,0,0,0,0,0,0,0,0,0,0,0,0,0,0,0,0,0,0,0,0,0,0,-1.2795,-1.2796,0,-1.2844,-1.2844,-1.2845,-1.2905,-1.2906,-1.2906,-1.2907,-1.2957,-1.2957,-1.2957,0,0,0,0,0,0,0,0,0,0,0,0,0,-1.2754,-1.2754,-1.2795,-1.2796,-1.2797,-1.2844,-1.2844,-1.2845,-1.2904,-1.2906,-1.2907,-1.2908,-1.2956,-1.2957,-1.2958,0,0,0,0,0,0,0,0,0,0,0,0,0,-1.2784,-1.2754,-1.2795,-1.2832,-1.2836,-1.2844,-1.2845,-1.2845,-1.2904,-1.2906,-1.2907,-1.2908,-1.2956,-1.2957,-1.2958,-1.2933,0,0,-1.296,-1.296,0,0,0,0,0,0,0,0,-1.2782,-1.2785,-1.2826,-1.2829,-1.2834,-1.287,-1.2848,-1.2875,-1.2904,-1.2878,-1.2907,-1.2909,-1.2927,-1.293,-1.2936,-1.2936,-1.2938,-1.296,-1.296,-1.296,-1.2961,0,0,0,0,0,0,0,-1.278,-1.2784,-1.2815,-1.2826,-1.2831,-1.2846,-1.2852,-1.2853,-1.2894,-1.288,-1.2885,-1.289,-1.2929,-1.2935,-1.2937,-1.2939,-1.296,-1.296,-1.2961,-1.2961,-1.2921,-1.2919,0,0,0,0,0,0,-1.2773,-1.2782,-1.2813,-1.2816,-1.2811,-1.2845,-1.2852,-1.2857,-1.2894,-1.2901,-1.2889,-1.2892,-1.2933,-1.2936,-1.2939,-1.2912,-1.296,-1.2961,-1.2961,-1.2922,-1.292,-1.2919,0,0,0,0,0,0,-1.2771,-1.2775,-1.2811,-1.28,-1.2806,-1.2845,-1.2849,-1.2857,-1.2863,-1.29,-1.2908,-1.2887,-1.2934,-1.2938,-1.2934,-1.2915,-1.2961,-1.2962,-1.2924,-1.2921,-1.2919,-1.2859,0,0,0,0,0,0,-1.277,-1.2774,-1.2765,-1.2799,-1.2806,-1.2805,-1.2848,-1.2857,-1.2864,-1.2869,-1.2901,-1.2907,-1.2936,-1.2933,-1.2935,-1.2917,-1.2962,-1.2926,-1.2923,-1.292,-1.2863,-1.2855,-1.2848,0,0,0,0,0,-1.2768,-1.2746,-1.2764,-1.2768,-1.2796,-1.2804,-1.2808,-1.2841,-1.2862,-1.2853,-1.2877,-1.2906,-1.2917,-1.2932,-1.2935,-1.2916,-1.2927,-1.2924,-1.292,-1.2866,-1.2856,-1.2848,0,0,0,0,0,0,-1.2709,-1.2751,-1.2772,-1.2761,-1.2778,-1.2814,-1.2804,-1.283,-1.2842,-1.2846,-1.2887,-1.2894,-1.2884,-1.29,-1.2916,-1.2895,-1.2926,-1.2923,-1.2884,-1.2875,-1.2868,-1.2863,-1.2963,0,0,0,0,0,-1.2694,-1.2697,-1.2735,-1.2721,-1.2729,-1.2765,-1.2769,-1.2793,-1.2813,-1.2821,-1.2845,-1.2862,-1.287,-1.2874,-1.2883,-1.2866,-1.2873,-1.2855,-1.2848,-1.2841,-1.2838,-1.2829,-1.2821,-1.2908,-1.2908,-1.2908,0,0,-1.2664,-1.2688,-1.2687,-1.2709,-1.2726,-1.2727,-1.277,-1.2771,-1.2772,-1.2821,-1.2818,-1.2836,-1.2859,-1.2848,-1.2844,-1.2861,-1.2816,-1.2837,-1.2832,-1.2832,-1.2825,-1.2816,-1.2809,-1.2906,-1.2906,-1.2906,0,0,-1.261,-1.2629,-1.2619,-1.2635,-1.2659,-1.2683,-1.2681,-1.2713,-1.2727,-1.2725,-1.2761,-1.2764,-1.2776,-1.279,-1.2799,-1.2751,-1.2777,-1.2753,-1.2714,-1.2705,-1.2698,-1.2692,-1.2673,-1.2666,-1.275,-1.2749,-1.2749,0,-1.257,-1.2574,-1.2611,-1.2608,-1.2617,-1.2661,-1.2651,-1.2665,-1.2691,-1.2695,-1.2714,-1.273,-1.2748,-1.2741,-1.2729,-1.2735,-1.2733,-1.2748,-1.2696,-1.269,-1.2685,-1.2668,-1.2661,-1.2746,-1.2747,-1.2747,-1.2747,0,-1.2522,-1.2524,-1.2513,-1.2537,-1.2544,-1.2538,-1.2574,-1.2577,-1.2601,-1.2623,-1.262,-1.2644,-1.2658,-1.2659,-1.2682,-1.2654,-1.2663,-1.2689,-1.2721,-1.2673,-1.2657,-1.2651,-1.2741,-1.2743,-1.2744,-1.2744,0,0,-1.243,-1.2475,-1.247,-1.2481,-1.2511,-1.2514,-1.251,-1.2524,-1.2525,-1.2542,-1.2538,-1.2548,-1.2571,-1.2581,-1.2607,-1.2599,-1.2557,-1.2625,-1.2626,-1.261,-1.2526,-1.2506,-1.2497,-1.2576,-1.2575,-1.2574,-1.2524,0,-1.238,-1.2375,-1.2408,-1.2394,-1.2396,-1.2439,-1.2436,-1.2454,-1.2474,-1.2479,-1.2503,-1.2508,-1.2539,-1.2545,-1.254,-1.2563,-1.2541,-1.2568,-1.2572,-1.2572,-1.2563,-1.249,-1.2468,-1.2419,-1.2518,-1.2517,-1.2516,0,-1.2321,-1.2334,-1.232,-1.235,-1.2353,-1.2349,-1.2364,-1.2368,-1.2389,-1.2405,-1.2416,-1.2446,-1.2443,-1.2476,-1.2472,-1.249,-1.2494,-1.2506,-1.2505,-1.2505,-1.254,-1.2486,-1.2405,-1.2397,-1.2507,-1.2508,-1.2509,0,-1.2253,-1.2267,-1.226,-1.2269,-1.2305,-1.2301,-1.2316,-1.2339,-1.2345,-1.2358,-1.2362,-1.2376,-1.2382,-1.2392,-1.2424,-1.2444,-1.2416,-1.2451,-1.2428,-1.2427,-1.2419,-1.2418,-1.2335,-1.2424,-1.2425,-1.2425,-1.2425,0,-1.2192,-1.2181,-1.223,-1.2226,-1.2215,-1.2254,-1.2242,-1.2261,-1.2281,-1.2281,-1.232,-1.2319,-1.2362,-1.2366,-1.2391,-1.2384,-1.2387,-1.2399,-1.2405,-1.2394,-1.2392,-1.2396,-1.2399,-1.2423,-1.2423,-1.2424,-1.2424,0,-1.2113,-1.2146,-1.2141,-1.2176,-1.2184,-1.2175,-1.2204,-1.2202,-1.2225,-1.2224,-1.2227,-1.2263,-1.227,-1.2303,-1.2317,-1.2334,-1.2318,-1.2332,-1.231,-1.2314,-1.2288,-1.2289,-1.2203,-1.2193,-1.229,-1.2289,-1.2288,0,-1.2072,-1.2064,-1.2098,-1.2101,-1.2114,-1.2118,-1.2124,-1.2163,-1.2167,-1.2191,-1.2185,-1.2195,-1.2204,-1.2213,-1.224,-1.2251,-1.2265,-1.2234,-1.2267,-1.2255,-1.2262,-1.2261,-1.226,-1.2226,-1.2225,-1.2224,-1.2223,0,-1.1993,-1.201,-1.2017,-1.203,-1.2037,-1.2049,-1.2064,-1.2064,-1.2106,-1.211,-1.2117,-1.2124,-1.2139,-1.2147,-1.2163,-1.2178,-1.2207,-1.2213,-1.2208,-1.2195,-1.2182,-1.2187,-1.2289,-1.2214,-1.2215,-1.2216,-1.2216,-1.2217,-1.1931,-1.1926,-1.1948,-1.1956,-1.1971,-1.1983,-1.1982,-1.2006,-1.2012,-1.2027,-1.2049,-1.2053,-1.2075,-1.2099,-1.2112,-1.2115,-1.2131,-1.2124,-1.2122,-1.2119,-1.2113,-1.2183,-1.2118,-1.2118,-1.2119,-1.2119,-1.2119,0,-1.1852,-1.187,-1.1876,-1.1895,-1.19,-1.1928,-1.1946,-1.1948,-1.1951,-1.1969,-1.1977,-1.1985,-1.1994,-1.2022,-1.2034,-1.2031,-1.2044,-1.2032,-1.2032,-1.2034,-1.2098,-1.2101,-1.2021,-1.2021,-1.2021,-1.2021,-1.2021,-1.2021,-1.1812,-1.1805,-1.1824,-1.1825,-1.1842,-1.1846,-1.1853,-1.1865,-1.1879,-1.1886,-1.1893,-1.1912,-1.1934,-1.1948,-1.1957,-1.1965,-1.1966,-1.195,-1.1962,-1.2021,-1.203,-1.2039,-1.2041,-1.195,-1.195,-1.1898,-1.1897,-1.1897]}]]